Weather History for KPBF - May, 2014

Change the Weather History Date:

Saturday, May 31, 2014

  Actual Average Record
Temperature  
Mean Temperature 78 °F 76 °F  
Max Temperature 85 °F 86 °F 99 °F (1886)
Min Temperature 70 °F 66 °F 40 °F (1984)
Degree Days  
Heating Degree Days 0 0  
Month to date heating degree days 46 15  
Since 1 July heating degree days 3453 2881  
Cooling Degree Days 13 11  
Month to date cooling degree days 209 220  
Year to date cooling degree days 263 307  
Growing Degree Days 26 (Base 50)    
Moisture  
Dew Point 69 °F    
Average Humidity 76    
Maximum Humidity 93    
Minimum Humidity 59    
Precipitation  
Precipitation 0.86 in 0.16 in 3.46 in (1909)
Month to date precipitation 7.15 5.05  
Year to date precipitation 22.27 23.20  
Snow  
Snow 0.00 in 0.00 in - ()
Month to date snowfall 0.0 0.0  
Since 1 July snowfall 3.7 3.1  
Snow Depth 0.00 in    
Sea Level Pressure  
Sea Level Pressure 29.99 in    
Wind  
Wind Speed 6 mph (ESE)    
Max Wind Speed 21 mph    
Max Gust Speed 28 mph    
Visibility 8 miles    
Events Fog , Rain , Thunderstorm    
T = Trace of Precipitation, MM = Missing Value Source: NWS Daily Summary

Daily Weather History Graph

Daily Weather History Graph

Search for Another Location

Airport or City:

Trip Planner

Search our weather history database for the weather conditions in past years. The results will help you decide how hot, cold, wet, or windy it might be!

Date:

Astronomy

May. 31, 2014 Rise Set
Actual Time 5:57 AM CDT 8:13 PM CDT
Civil Twilight 5:28 AM CDT 8:42 PM CDT
Nautical Twilight 4:53 AM CDT 9:17 PM CDT
Astronomical Twilight 4:15 AM CDT 9:56 PM CDT
Moon 8:31 AM CDT (5/31) 10:36 PM CDT (5/31)
Length of Visible Light 15h 13m
Length of Day
14h 16m
Waxing Crescent, 8% of the Moon is Illuminated
May 31
Waxing Crescent
Jun 5
First Quarter
Jun 12
Full
Jun 19
Last Quarter
Jun 27
New

Hourly Weather History & Observations

Time (CDT) Temp. Heat Index Dew Point Humidity Pressure Visibility Wind Dir Wind Speed Gust Speed Precip Events Conditions
12:53 AM 71.1 °F - 68.0 °F 90% 29.97 in 10.0 mi East 6.9 mph - N/A   Scattered Clouds
1:53 AM 71.1 °F - 68.0 °F 90% 29.97 in 9.0 mi ESE 6.9 mph - 0.00 in Rain Light Rain
2:53 AM 71.1 °F - 69.1 °F 93% 29.96 in 10.0 mi SE 6.9 mph - 0.02 in   Overcast
3:53 AM 71.6 °F - 69.8 °F 94% 29.97 in 10.0 mi ESE 4.6 mph - N/A   Overcast
4:53 AM 71.1 °F - 69.1 °F 93% 29.97 in 10.0 mi ESE 4.6 mph - N/A   Overcast
5:53 AM 71.1 °F - 69.1 °F 93% 29.98 in 10.0 mi ESE 5.8 mph - N/A   Overcast
6:53 AM 71.1 °F - 69.1 °F 93% 30.00 in 9.0 mi ESE 5.8 mph - N/A   Overcast
7:53 AM 71.1 °F - 69.1 °F 93% 30.01 in 10.0 mi East 6.9 mph - N/A   Overcast
8:53 AM 72.0 °F - 69.1 °F 91% 30.02 in 10.0 mi ESE 5.8 mph - N/A   Overcast
9:53 AM 73.4 °F - 69.8 °F 88% 30.03 in 10.0 mi East 9.2 mph - N/A   Overcast
10:04 AM 73.4 °F - 69.8 °F 88% 30.03 in 10.0 mi ESE 5.8 mph - N/A   Overcast
10:53 AM 75.9 °F - 71.1 °F 85% 30.02 in 10.0 mi ESE 8.1 mph - N/A   Overcast
11:24 AM 75.2 °F - 69.8 °F 83% 30.02 in 10.0 mi SE 9.2 mph - N/A   Overcast
11:53 AM 78.1 °F - 70.0 °F 76% 30.01 in 10.0 mi East 10.4 mph - N/A   Overcast
12:08 PM 78.8 °F - 69.8 °F 74% 30.02 in 10.0 mi East 8.1 mph - N/A   Overcast
12:53 PM 81.0 °F 84.9 °F 71.1 °F 72% 30.01 in 10.0 mi East 11.5 mph - N/A   Mostly Cloudy
1:53 PM 81.0 °F 84.4 °F 70.0 °F 69% 29.98 in 10.0 mi East 9.2 mph - 0.06 in   Partly Cloudy
2:53 PM 81.0 °F 84.1 °F 69.1 °F 67% 29.97 in 10.0 mi East 9.2 mph - N/A   Scattered Clouds
3:53 PM 84.9 °F 88.2 °F 68.0 °F 57% 29.95 in 10.0 mi East 9.2 mph - N/A   Mostly Cloudy
4:53 PM 81.0 °F 84.1 °F 69.1 °F 67% 29.94 in 10.0 mi SE 10.4 mph - 0.00 in   Mostly Cloudy
5:53 PM 77.0 °F - 69.8 °F 78% 29.96 in 10.0 mi SE 11.5 mph - N/A   Mostly Cloudy
6:39 PM 75.2 °F - 69.8 °F 83% 29.98 in 7.0 mi SSE 18.4 mph 27.6 mph N/A Thunderstorm Mostly Cloudy
6:42 PM 73.4 °F - 69.8 °F 88% 29.99 in 1.5 mi SSE 19.6 mph 27.6 mph 0.15 in Rain , Thunderstorm Rain
6:48 PM 71.6 °F - 68.0 °F 88% 29.99 in 0.5 mi SE 12.7 mph 27.6 mph 0.35 in Fog , Rain , Thunderstorm Heavy Rain
6:53 PM 70.0 °F - 66.9 °F 90% 29.99 in 0.8 mi ESE 11.5 mph 23.0 mph 0.45 in Rain , Thunderstorm Heavy Rain
7:01 PM 69.8 °F - 66.2 °F 88% 29.98 in 1.2 mi SE 8.1 mph - 0.17 in Rain , Thunderstorm Heavy Rain
7:08 PM 69.8 °F - 68.0 °F 94% 29.98 in 1.8 mi East 6.9 mph - 0.22 in Rain Heavy Rain
7:13 PM 69.8 °F - 68.0 °F 94% 29.98 in 3.0 mi East 5.8 mph - 0.24 in Rain Heavy Rain
7:53 PM 71.1 °F - 69.1 °F 93% 29.98 in 7.0 mi Calm Calm - 0.27 in Rain Rain
8:53 PM 71.1 °F - 69.1 °F 93% 29.97 in 10.0 mi Calm Calm - 0.05 in Rain Light Rain
9:53 PM 71.1 °F - 69.1 °F 93% 29.99 in 10.0 mi Calm Calm - 0.01 in   Partly Cloudy
10:53 PM 71.1 °F - 69.1 °F 93% 30.01 in 10.0 mi Calm Calm - N/A   Clear
11:53 PM 71.1 °F - 68.0 °F 90% 30.00 in 10.0 mi Calm Calm - N/A   Clear